Regional Weather Roundup
Issued by NWS Northern Indiana

Home | Current Version | Previous Version | Text Only | Print | Product List | Glossary On
Versions: 1 2 3 4 5 6 7 8 9 10 11 12 13 14 15 16 17 18 19 20 21 22 23 24 25 26 27 28 29 30 31 32 33 34 35 36 37 38 39 40 41 42 43 44 45 46 47 48 49 50
000
ASUS43 KIWX 281410
RWRIWX

KIWX WEATHER ROUNDUP
NATIONAL WEATHER SERVICE NORTHERN INDIANA
1000 AM EDT FRI APR 28 2017

NOTE: "FAIR" INDICATES FEW OR NO CLOUDS BELOW 12,000 FEET WITH NO
SIGNIFICANT WEATHER AND/OR OBSTRUCTIONS TO VISIBILITY.

* THESE STATIONS ARE NOT UNDER NWS QUALITY CONTROL. THEY ALSO MAY NOT
  REPORT WEATHER SUCH AS PRECIPITATION OR FOG.

INZ001>027-281500-
NORTHERN INDIANA

CITY           SKY/WX    TMP DP  RH WIND       PRES   REMARKS
GARY*          MOSUNNY   54  43  66 VRB3      29.95S
VALPARAISO     MOSUNNY   55  46  71 S6        29.94F
MICHIGAN CITY* SUNNY     52  45  76 SW7       29.96F
LAPORTE*       MOSUNNY   53  45  74 S8        29.96S
KNOX*          CLOUDY    52  28  40 S9        29.96S
SOUTH BEND     SUNNY     53  43  68 SW15      29.99R
ELKHART*       SUNNY     55  43  62 SW7       29.96S
GOSHEN         MOSUNNY   53  41  63 S15G22    29.98R
MONTICELLO*    CLOUDY    51  44  77 SE7       29.95R
LOGANSPORT*    CLOUDY    52  45  76 SE12      29.99F
ROCHESTER*     CLOUDY    54  45  71 S7        29.98F
WARSAW*        MOSUNNY   52  43  71 S7        30.00R
ANGOLA*        SUNNY     54  43  66 S8        29.99R
FORT WAYNE     PTSUNNY   52  43  71 S9        30.00S
HUNTINGTON*    CLOUDY    51  44  76 S7        30.00S
PERU/GRISSOM   CLOUDY    52  47  84 S13       29.97S
MARION*        CLOUDY    50  45  81 SE10      30.00S HAZE

$$
INZ028>050-281500-
CENTRAL INDIANA

CITY           SKY/WX    TMP DP  RH WIND       PRES   REMARKS
LAFAYETTE      CLOUDY    50  46  86 SE6       29.94S
KOKOMO*        CLOUDY    52  45  77 SE13      29.99S
MUNCIE*        CLOUDY    52  43  71 S6        30.01S
INDIANAPOLIS   CLOUDY    51  45  79 SE13      29.97F

$$
MIZ043>046-050>051-056>058-064>065-071>073-077>080-281500-
SOUTHWEST LOWER MICHIGAN

CITY           SKY/WX    TMP DP  RH WIND       PRES   REMARKS
BATTLE CREEK   SUNNY     52  43  71 SW16      29.96S
BENTON HARBOR  MOSUNNY   51  42  71 MISG      29.96S
COLDWATER*     SUNNY     55  42  62 SW9       29.97S
HILLSDALE*     SUNNY     52  41  66 S9        29.97S
HOLLAND        CLOUDY    47  37  68 SW10      29.96R
GRAND RAPIDS   CLOUDY    47  39  74 SW12      29.95R
KALAMAZOO      SUNNY     53  41  63 SW13      29.97R
STURGIS*       SUNNY     53  43  67 S13       29.97R
THREE RIVERS*  FAIR      54  43  67 SW14      29.97R

$$
OHZ001>008-015>018-024>025-281500-
NORTHWEST OHIO

CITY           SKY/WX    TMP DP  RH WIND       PRES   REMARKS
WAUSEON*       FAIR      54  41  62 S10       30.00F
DEFIANCE       PTSUNNY   52  41  66 S13       30.03R
FINDLAY        SUNNY     55  42  61 S13       30.01F
TOLEDO EXPRESS CLOUDY    51  41  68 S9        30.01S
TOLEDO METCALF CLOUDY    52  42  69 S12       30.02F
LIMA           MOSUNNY   51  44  77 S10       30.04R

$$
AND FOR LAKE MICHIGAN COASTAL AND OPEN LAKE BUOY OBSERVATIONS

STATION/POSITION TEMP    WIND        PRES    VSBY  WAVE
                 AIR SEA DIR/SP/G                  HT/PER
                 (F)     (DEG/KT/KT) (MB)    (MI)  (FT/S)
CALUMET HARBOR    47      40/  6/  8 1013.9R
MICHIGAN CITY     49     210/  4/  7   N/A
BURNS HARBOR      51     200/  9/ 12 1014.9S
SOUTH LAKE BUOY   41 41  250/  6/  8 1014.8          1/ 4
4 MI NW BRIDGMAN  46 48  350/  2/  4 1015.6          1/ 3
MICHIGAN CITY     47 47                N/A           0

$$
&&



USA.gov is the U.S. government's official web portal to all federal, state and local government web resources and services.